GW0458 Weather Reports


Display with metric or nautical units.
time (UTC)temp
F
wind
direction
speed
MPH
gust
MPH
rain 1hr
in
rain 24hr
in
rain mn
in
humidity
%
barometer
mb
20260902003936 65 200 0.0 0.0 0.00 0.00 0.00 82 1017.9
20260902000934 66 211 0.0 0.0 0.00 0.00 0.00 82 1017.6
20260901233932 65 209 1.0 2.0 0.00 0.00 0.00 80 1017.8
20260901230930 65 207 0.0 0.0 0.00 0.00 0.00 83 1017.8
20260901223929 65 220 0.0 1.0 0.00 0.00 0.00 82 1017.6
20260901220925 66 208 0.0 1.0 0.00 0.00 0.00 81 1017.9
20260901213925 65 212 1.0 1.0 0.00 0.00 0.00 81 1017.8
20260901210920 65 201 0.0 1.0 0.00 0.00 0.00 82 1017.9
20260901203915 64 186 2.0 3.0 0.00 0.00 0.00 83 1018.1
20260901200913 65 225 3.0 5.0 0.00 0.00 0.00 82 1018.1
20260901193910 64 200 3.0 3.0 0.00 0.00 0.00 82 1018.2
20260901190910 64 157 3.0 3.0 0.00 0.00 0.00 83 1018.5
20260901183910 64 192 1.0 1.0 0.00 0.00 0.00 83 1018.6
20260901180906 63 200 0.0 1.0 0.00 0.00 0.00 85 1018.5
20260901173904 62 199 0.0 0.0 0.00 0.00 0.00 88 1018.3
20260901170902 61 200 0.0 0.0 0.00 0.00 0.00 89 1018.3
20260901163900 59 190 1.0 1.0 0.00 0.00 0.00 93 1018.1
20260901160855 58 190 1.0 2.0 0.00 0.00 0.00 94 1018.5
20260901153854 58 186 2.0 2.0 0.00 0.00 0.00 96 1018.6
20260901150854 57 186 1.0 1.0 0.00 0.00 0.00 97 1018.6
20260901143853 55 202 0.0 0.0 0.00 0.00 0.00 99 1018.3
20260901140851 55 209 0.0 0.0 0.00 0.00 0.00 99 1018.0
20260901133848 53 198 0.0 0.0 0.00 0.00 0.00 99 1018.0
20260901130847 54 189 1.0 1.0 0.00 0.00 0.00 99 1017.9
20260901123846 55 192 1.0 1.0 0.00 0.00 0.00 99 1017.8
20260901120842 55 199 0.0 0.0 0.00 0.00 0.00 99 1017.4
20260901113841 54 203 0.0 0.0 0.00 0.00 0.00 99 1016.9
20260901110839 54 201 0.0 0.0 0.00 0.00 0.00 99 1017.2
20260901103836 55 198 0.0 0.0 0.00 0.00 0.00 99 1017.0
20260901100832 55 196 0.0 0.0 0.00 0.00 0.00 99 1016.7
20260901093831 55 193 0.0 0.0 0.00 0.00 0.00 99 1016.3
20260901090830 56 194 0.0 1.0 0.00 0.00 0.00 97 1016.5
20260901083826 58 199 0.0 0.0 0.00 0.00 0.00 96 1016.4
20260901080822 58 201 0.0 0.0 0.00 0.00 0.00 94 1016.0
20260901073820 59 200 0.0 0.0 0.00 0.00 0.00 90 1016.3
20260901070821 60 197 0.0 0.0 0.00 0.00 0.00 88 1016.1
20260901063817 61 201 0.0 0.0 0.00 0.00 0.00 85 1016.1
20260901060813 62 205 0.0 0.0 0.00 0.00 0.00 82 1016.2
20260901053812 63 209 1.0 2.0 0.00 0.00 0.00 81 1016.1
20260901050810 64 197 0.0 1.0 0.00 0.00 0.00 79 1016.3
20260901043806 65 197 0.0 0.0 0.00 0.00 0.00 79 1016.2
20260901040804 66 203 0.0 0.0 0.00 0.00 0.00 77 1016.4
20260901033801 66 208 0.0 0.0 0.00 0.00 0.00 75 1016.2
20260901030802 68 211 0.0 0.0 0.00 0.00 0.00 73 1015.7
20260901023800 69 199 0.0 0.0 0.00 0.00 0.00 70 1015.7
20260901020756 70 225 1.0 1.0 0.00 0.00 0.00 69 1015.9
20260901013756 71 194 1.0 1.0 0.00 0.00 0.00 66 1015.8
20260901010755 72 212 0.0 1.0 0.00 0.00 0.00 64 1015.8